AAL1905 KSNA-KLAS

Flight info

Callsign AAL1905
Flight time 0h 44m
Altitude 25000
Route FINZZ3 MISEN RNDRZ4
Aircraft A321/M-VGDW/C

Departure

Time 2026-05-04 00:04
Airport John Wayne Orange County International Airport (KSNA)

Arrival

Time 2026-05-04 00:48
Airport Harry Reid International Airport (KLAS)
Time Latitude Longitude Altitude Speed Heading
2026-05-03 23:43 33.68074 -117.86153 55 ft 0 kts 137°
2026-05-03 23:53 33.68077 -117.86156 55 ft 2 kts 137°
2026-05-03 23:53 33.68089 -117.86170 53 ft 3 kts 142°
2026-05-03 23:53 33.68106 -117.86183 50 ft 3 kts 160°
2026-05-03 23:54 33.68124 -117.86188 52 ft 3 kts 182°
2026-05-03 23:54 33.68143 -117.86185 52 ft 3 kts 204°
2026-05-03 23:54 33.68152 -117.86180 49 ft 1 kts 207°
2026-05-03 23:54 33.68154 -117.86179 53 ft 1 kts 207°
2026-05-04 00:00 33.68152 -117.86180 49 ft 2 kts 207°
2026-05-04 00:00 33.68130 -117.86194 50 ft 6 kts 207°
2026-05-04 00:00 33.68083 -117.86223 54 ft 8 kts 207°
2026-05-04 00:00 33.68064 -117.86276 55 ft 8 kts 273°
2026-05-04 00:01 33.68084 -117.86349 53 ft 10 kts 301°
2026-05-04 00:01 33.68113 -117.86415 55 ft 1 kts 297°
2026-05-04 00:01 33.68114 -117.86417 55 ft 0 kts 297°
2026-05-04 00:02 33.68114 -117.86418 55 ft 0 kts 297°
2026-05-04 00:02 33.68115 -117.86419 55 ft 0 kts 297°
2026-05-04 00:02 33.68122 -117.86434 55 ft 7 kts 299°
2026-05-04 00:02 33.68153 -117.86494 54 ft 9 kts 301°
2026-05-04 00:03 33.68136 -117.86525 55 ft 0 kts 208°
2026-05-04 00:03 33.68107 -117.86544 55 ft 29 kts 208°
2026-05-04 00:03 33.67662 -117.86826 51 ft 112 kts 207°
2026-05-04 00:03 33.66786 -117.87386 218 ft 161 kts 209°
2026-05-04 00:04 33.65791 -117.88019 1088 ft 162 kts 209°
2026-05-04 00:04 33.64798 -117.88642 1817 ft 161 kts 209°
2026-05-04 00:04 33.63783 -117.89189 2442 ft 165 kts 195°
2026-05-04 00:04 33.62615 -117.89332 3062 ft 171 kts 187°
2026-05-04 00:05 33.61397 -117.89454 3610 ft 182 kts 187°
2026-05-04 00:05 33.60096 -117.89608 4016 ft 194 kts 187°
2026-05-04 00:05 33.58701 -117.89796 4345 ft 209 kts 188°
2026-05-04 00:05 33.57225 -117.90158 4591 ft 226 kts 203°
2026-05-04 00:06 33.55865 -117.91266 4849 ft 248 kts 221°
2026-05-04 00:06 33.54566 -117.92699 5383 ft 257 kts 224°
2026-05-04 00:06 33.53275 -117.94206 6091 ft 261 kts 225°
2026-05-04 00:06 33.52072 -117.95844 6765 ft 265 kts 236°
2026-05-04 00:07 33.51409 -117.97920 7372 ft 272 kts 262°
2026-05-04 00:07 33.51579 -118.00171 8083 ft 277 kts 286°
2026-05-04 00:07 33.52569 -118.02162 8802 ft 285 kts 311°
2026-05-04 00:07 33.54227 -118.03502 9473 ft 294 kts 336°
2026-05-04 00:08 33.56267 -118.03911 10058 ft 306 kts
2026-05-04 00:08 33.58419 -118.03536 10454 ft 320 kts 11°
2026-05-04 00:08 33.60629 -118.02829 10706 ft 339 kts 15°
2026-05-04 00:08 33.62958 -118.01992 10879 ft 359 kts 15°
2026-05-04 00:09 33.65420 -118.01146 11052 ft 377 kts 13°
2026-05-04 00:09 33.68001 -118.00350 11375 ft 388 kts 12°
2026-05-04 00:09 33.70652 -117.99613 11876 ft 393 kts 11°
2026-05-04 00:09 33.73337 -117.98916 12460 ft 397 kts 10°
2026-05-04 00:10 33.76052 -117.98233 13056 ft 401 kts 10°
2026-05-04 00:10 33.78794 -117.97547 13644 ft 405 kts 10°
2026-05-04 00:10 33.81567 -117.96849 14199 ft 409 kts
2026-05-04 00:10 33.84362 -117.96132 14720 ft 413 kts
2026-05-04 00:11 33.87185 -117.95393 15246 ft 417 kts 10°
2026-05-04 00:11 33.89968 -117.94313 15776 ft 425 kts 20°
2026-05-04 00:11 33.92606 -117.92624 16270 ft 433 kts 31°
2026-05-04 00:11 33.95017 -117.90482 16758 ft 439 kts 35°
2026-05-04 00:12 33.97455 -117.88241 17241 ft 444 kts 34°
2026-05-04 00:12 33.99979 -117.86064 17730 ft 445 kts 25°
2026-05-04 00:12 34.02835 -117.84722 18192 ft 439 kts
2026-05-04 00:12 34.05840 -117.84429 18618 ft 431 kts 352°
2026-05-04 00:13 34.08845 -117.84533 19075 ft 433 kts 351°
2026-05-04 00:13 34.11868 -117.84649 19532 ft 436 kts 351°
2026-05-04 00:13 34.14914 -117.84751 19981 ft 439 kts 352°
2026-05-04 00:13 34.17996 -117.84698 20389 ft 446 kts 355°
2026-05-04 00:14 34.21111 -117.84484 20808 ft 450 kts 356°
2026-05-04 00:14 34.24247 -117.84236 21227 ft 453 kts 356°
2026-05-04 00:14 34.27401 -117.83970 21627 ft 457 kts 356°
2026-05-04 00:14 34.30576 -117.83688 22200 ft 453 kts 356°
2026-05-04 00:15 34.33648 -117.83371 22793 ft 435 kts 356°
2026-05-04 00:15 34.36653 -117.83017 23321 ft 434 kts 356°
2026-05-04 00:15 34.39664 -117.82640 23776 ft 436 kts 356°
2026-05-04 00:15 34.42688 -117.82250 24168 ft 438 kts 356°
2026-05-04 00:16 34.45727 -117.81846 24541 ft 440 kts 356°
2026-05-04 00:16 34.48779 -117.81433 24827 ft 442 kts 356°
2026-05-04 00:16 34.51839 -117.81014 24898 ft 442 kts 356°
2026-05-04 00:16 34.54895 -117.80592 24908 ft 442 kts 356°
2026-05-04 00:17 34.57951 -117.80149 24904 ft 445 kts 359°
2026-05-04 00:17 34.60979 -117.79082 24900 ft 464 kts 17°
2026-05-04 00:17 34.63740 -117.76939 24889 ft 480 kts 37°
2026-05-04 00:17 34.65900 -117.73804 24852 ft 490 kts 58°
2026-05-04 00:18 34.67330 -117.70035 24880 ft 493 kts 67°
2026-05-04 00:18 34.68627 -117.66175 24876 ft 493 kts 68°
2026-05-04 00:18 34.69917 -117.62318 24888 ft 493 kts 68°
2026-05-04 00:18 34.71206 -117.58452 24893 ft 493 kts 68°
2026-05-04 00:19 34.72493 -117.54594 24896 ft 493 kts 68°
2026-05-04 00:19 34.73781 -117.50738 24899 ft 492 kts 67°
2026-05-04 00:19 34.75076 -117.46882 24898 ft 492 kts 67°
2026-05-04 00:19 34.76377 -117.43031 24899 ft 492 kts 67°
2026-05-04 00:20 34.77676 -117.39180 24898 ft 492 kts 67°
2026-05-04 00:20 34.78970 -117.35329 24892 ft 492 kts 67°
2026-05-04 00:20 34.80260 -117.31477 24884 ft 492 kts 68°
2026-05-04 00:20 34.81547 -117.27618 24875 ft 492 kts 68°
2026-05-04 00:21 34.82833 -117.23757 24861 ft 492 kts 68°
2026-05-04 00:21 34.84102 -117.19950 24843 ft 492 kts 68°
2026-05-04 00:21 34.85387 -117.16090 24807 ft 492 kts 68°
2026-05-04 00:21 34.86669 -117.12224 24808 ft 492 kts 68°
2026-05-04 00:22 34.87950 -117.08353 24809 ft 493 kts 68°
2026-05-04 00:22 34.89228 -117.04485 24807 ft 493 kts 68°
2026-05-04 00:22 34.90509 -117.00609 24808 ft 493 kts 68°
2026-05-04 00:22 34.91789 -116.96741 24808 ft 493 kts 68°
2026-05-04 00:23 34.93071 -116.92866 24807 ft 493 kts 68°
2026-05-04 00:23 34.94351 -116.88991 24806 ft 493 kts 68°
2026-05-04 00:23 34.95630 -116.85115 24807 ft 493 kts 68°
2026-05-04 00:23 34.96905 -116.81241 24800 ft 492 kts 68°
2026-05-04 00:24 34.98178 -116.77371 24802 ft 492 kts 69°
2026-05-04 00:24 34.99447 -116.73500 24799 ft 492 kts 68°
2026-05-04 00:24 35.00713 -116.69624 24797 ft 492 kts 68°
2026-05-04 00:24 35.01978 -116.65749 24796 ft 492 kts 68°
2026-05-04 00:25 35.03244 -116.61877 24791 ft 491 kts 68°
2026-05-04 00:25 35.04510 -116.58004 24800 ft 491 kts 68°
2026-05-04 00:25 35.05774 -116.54134 24801 ft 491 kts 68°
2026-05-04 00:25 35.07038 -116.50257 24796 ft 491 kts 68°
2026-05-04 00:26 35.08297 -116.46385 24797 ft 491 kts 68°
2026-05-04 00:26 35.09685 -116.42589 24794 ft 489 kts 60°
2026-05-04 00:26 35.11479 -116.39065 24495 ft 487 kts 50°
2026-05-04 00:26 35.13652 -116.35947 24117 ft 478 kts 42°
2026-05-04 00:27 35.15945 -116.33016 23827 ft 476 kts 42°
2026-05-04 00:27 35.18221 -116.30085 23532 ft 474 kts 43°
2026-05-04 00:27 35.20483 -116.27157 23205 ft 472 kts 43°
2026-05-04 00:27 35.22725 -116.24247 22828 ft 468 kts 43°
2026-05-04 00:28 35.24897 -116.21373 22449 ft 464 kts 45°
2026-05-04 00:28 35.27071 -116.18414 22073 ft 459 kts 46°
2026-05-04 00:28 35.29147 -116.15540 21711 ft 454 kts 46°
2026-05-04 00:28 35.31217 -116.12657 21357 ft 448 kts 47°
2026-05-04 00:29 35.33267 -116.09808 21004 ft 443 kts 47°
2026-05-04 00:29 35.35297 -116.06996 20656 ft 438 kts 47°
2026-05-04 00:29 35.37306 -116.04227 20310 ft 432 kts 47°
2026-05-04 00:29 35.39294 -116.01494 19973 ft 427 kts 47°
2026-05-04 00:30 35.41253 -115.98802 19684 ft 420 kts 47°
2026-05-04 00:30 35.43178 -115.96153 19233 ft 412 kts 48°
2026-05-04 00:30 35.45069 -115.93550 18702 ft 405 kts 49°
2026-05-04 00:30 35.46926 -115.90992 18261 ft 398 kts 49°
2026-05-04 00:31 35.48755 -115.88471 17722 ft 393 kts 49°
2026-05-04 00:31 35.50561 -115.85980 17286 ft 389 kts 50°
2026-05-04 00:31 35.52349 -115.83505 16831 ft 386 kts 50°
2026-05-04 00:31 35.54119 -115.81050 16377 ft 383 kts 50°
2026-05-04 00:32 35.55874 -115.78617 16052 ft 378 kts 50°
2026-05-04 00:32 35.57590 -115.76243 15980 ft 363 kts 50°
2026-05-04 00:32 35.59229 -115.73975 15994 ft 348 kts 50°
2026-05-04 00:32 35.60832 -115.71776 15814 ft 343 kts 50°
2026-05-04 00:33 35.62431 -115.69613 15462 ft 341 kts 50°
2026-05-04 00:33 35.65603 -115.65342 14740 ft 336 kts 50°
2026-05-04 00:33 35.66667 -115.63911 14535 ft 334 kts 50°
2026-05-04 00:34 35.68228 -115.61810 14356 ft 334 kts 50°
2026-05-04 00:34 35.69793 -115.59696 14160 ft 334 kts 50°
2026-05-04 00:34 35.71334 -115.57610 13975 ft 333 kts 50°
2026-05-04 00:34 35.72997 -115.55624 13786 ft 335 kts 39°
2026-05-04 00:35 35.74956 -115.54075 13585 ft 336 kts 31°
2026-05-04 00:35 35.76989 -115.52663 13387 ft 335 kts 30°
2026-05-04 00:35 35.79016 -115.51253 13180 ft 335 kts 31°
2026-05-04 00:35 35.81038 -115.49842 13015 ft 333 kts 31°
2026-05-04 00:36 35.82997 -115.48471 13003 ft 334 kts 31°
2026-05-04 00:36 35.85022 -115.47049 13014 ft 335 kts 31°
2026-05-04 00:36 35.87046 -115.45629 13013 ft 335 kts 31°
2026-05-04 00:36 35.89067 -115.44209 13016 ft 334 kts 31°
2026-05-04 00:37 35.91082 -115.42787 13015 ft 334 kts 31°
2026-05-04 00:37 35.93119 -115.41354 12559 ft 338 kts 31°
2026-05-04 00:37 35.95143 -115.39939 12311 ft 332 kts 31°
2026-05-04 00:37 35.97140 -115.38547 12059 ft 329 kts 31°
2026-05-04 00:38 35.99005 -115.36944 11775 ft 324 kts 47°
2026-05-04 00:38 36.00383 -115.34782 11473 ft 318 kts 65°
2026-05-04 00:38 36.01169 -115.32275 11167 ft 310 kts 82°
2026-05-04 00:38 36.01349 -115.29663 10881 ft 302 kts 98°
2026-05-04 00:39 36.01219 -115.27101 10614 ft 296 kts 98°
2026-05-04 00:39 36.01095 -115.24585 10401 ft 291 kts 98°
2026-05-04 00:39 36.00972 -115.22107 10165 ft 287 kts 99°
2026-05-04 00:39 36.00851 -115.19693 9903 ft 284 kts 98°
2026-05-04 00:40 36.00728 -115.17269 9619 ft 282 kts 98°
2026-05-04 00:40 36.00607 -115.14853 9316 ft 283 kts 98°
2026-05-04 00:40 36.00483 -115.12429 9038 ft 283 kts 99°
2026-05-04 00:40 36.00365 -115.10057 9029 ft 270 kts 98°
2026-05-04 00:41 36.00254 -115.07800 8753 ft 259 kts 98°
2026-05-04 00:41 36.00145 -115.05611 8482 ft 252 kts 99°
2026-05-04 00:41 36.00035 -115.03470 8255 ft 249 kts 99°
2026-05-04 00:41 35.99926 -115.01345 8012 ft 247 kts 98°
2026-05-04 00:42 35.99869 -114.99213 7717 ft 248 kts 96°
2026-05-04 00:42 35.99856 -114.97089 7377 ft 247 kts 95°
2026-05-04 00:42 35.99857 -114.94972 7078 ft 246 kts 96°
2026-05-04 00:42 36.00163 -114.92895 6745 ft 252 kts 67°
2026-05-04 00:43 36.01283 -114.91245 6440 ft 253 kts 38°
2026-05-04 00:43 36.02851 -114.90311 6107 ft 250 kts 15°
2026-05-04 00:43 36.04554 -114.90179 5657 ft 244 kts 347°
2026-05-04 00:43 36.06053 -114.91018 5254 ft 228 kts 315°
2026-05-04 00:44 36.06995 -114.92463 5071 ft 207 kts 289°
2026-05-04 00:44 36.07352 -114.94066 4869 ft 191 kts 267°
2026-05-04 00:44 36.07360 -114.95715 4644 ft 190 kts 264°
2026-05-04 00:44 36.07362 -114.97319 4418 ft 188 kts 264°
2026-05-04 00:45 36.07363 -114.98931 4189 ft 187 kts 263°
2026-05-04 00:45 36.07363 -115.00524 3975 ft 185 kts 264°
2026-05-04 00:45 36.07366 -115.02107 3744 ft 184 kts 265°
2026-05-04 00:45 36.07366 -115.03682 3555 ft 184 kts 264°
2026-05-04 00:46 36.07369 -115.05223 3375 ft 173 kts 265°
2026-05-04 00:46 36.07373 -115.06673 3199 ft 164 kts 263°
2026-05-04 00:46 36.07368 -115.08058 2913 ft 160 kts 264°
2026-05-04 00:46 36.07367 -115.09417 2754 ft 156 kts 263°
2026-05-04 00:47 36.07368 -115.10747 2557 ft 154 kts 261°
2026-05-04 00:47 36.07368 -115.12098 2328 ft 161 kts 264°
2026-05-04 00:47 36.07367 -115.13456 2190 ft 148 kts 264°
2026-05-04 00:47 36.07366 -115.14515 2191 ft 98 kts 270°
2026-05-04 00:48 36.07365 -115.15080 2187 ft 33 kts 269°
2026-05-04 00:48 36.07401 -115.15344 2191 ft 30 kts 290°
2026-05-04 00:48 36.07489 -115.15545 2188 ft 14 kts 304°
2026-05-04 00:48 36.07533 -115.15616 2188 ft 7 kts 314°
2026-05-04 00:49 36.07538 -115.15622 2189 ft 0 kts 314°
2026-05-04 00:49 36.07539 -115.15622 2189 ft 0 kts 314°
2026-05-04 00:49 36.07540 -115.15624 2189 ft 0 kts 314°
2026-05-04 00:50 36.07541 -115.15625 2190 ft 1 kts 314°
2026-05-04 00:50 36.07582 -115.15675 2190 ft 14 kts 315°
2026-05-04 00:50 36.07654 -115.15764 2190 ft 15 kts 315°
2026-05-04 00:50 36.07749 -115.15826 2188 ft 16 kts
2026-05-04 00:51 36.07804 -115.15727 2188 ft 16 kts 87°
2026-05-04 00:51 36.07804 -115.15590 2188 ft 16 kts 90°
2026-05-04 00:51 36.07804 -115.15444 2189 ft 18 kts 90°
2026-05-04 00:51 36.07804 -115.15291 2189 ft 18 kts 89°
2026-05-04 00:52 36.07804 -115.15129 2188 ft 19 kts 90°
2026-05-04 00:52 36.07794 -115.14963 2189 ft 20 kts 95°
2026-05-04 00:52 36.07783 -115.14794 2190 ft 20 kts 95°
2026-05-04 00:52 36.07771 -115.14615 2189 ft 21 kts 94°
2026-05-04 00:53 36.07759 -115.14429 2188 ft 22 kts 94°
2026-05-04 00:53 36.07754 -115.14243 2188 ft 18 kts 89°
2026-05-04 00:53 36.07790 -115.14164 2188 ft 11 kts
2026-05-04 00:53 36.07827 -115.14092 2190 ft 12 kts 89°
2026-05-04 00:54 36.07848 -115.14000 2189 ft 11 kts 39°
2026-05-04 00:54 36.07906 -115.13927 2190 ft 12 kts 45°
2026-05-04 00:54 36.07968 -115.13849 2190 ft 12 kts 45°
2026-05-04 00:54 36.08018 -115.13792 2189 ft 8 kts 25°
2026-05-04 00:55 36.08058 -115.13828 2189 ft 8 kts 315°
2026-05-04 00:55 36.08079 -115.13854 2188 ft 0 kts 315°